contact:dominique.lefevre@mio.osupytheas.fr, maurice.libes@osupytheas.fr, didier.mallarino@osupytheas.fr
Project:EMSO http://www.emso-fr.org/EMSO-France
Depth: 2436.0 m
Title:EMSO Ligure Ouest : Data MII capteur OXYGEN
DateTime,Latitude,Longitude,Optode-Type,Optode_Serial,Oxygen,Saturation_Oxygen,Temperature
DateTime,Latitude,Longitude,Optode-Type,Optode_Serial,µmol.l-1,%,degC
2019-07-02T00:02:16,42.805,6.029,4330,1995,194.521,59.488,13.288
2019-07-02T00:05:16,42.805,6.029,4330,1995,194.492,59.479,13.288
2019-07-02T00:08:16,42.805,6.029,4330,1995,194.461,59.469,13.288
2019-07-02T00:11:16,42.805,6.029,4330,1995,194.499,59.481,13.288
2019-07-02T00:14:16,42.805,6.029,4330,1995,194.471,59.472,13.288
2019-07-02T00:17:16,42.805,6.029,4330,1995,194.472,59.473,13.289
2019-07-02T00:20:16,42.805,6.029,4330,1995,194.520,59.487,13.288
2019-07-02T00:23:16,42.805,6.029,4330,1995,194.491,59.478,13.288
2019-07-02T00:26:16,42.805,6.029,4330,1995,194.501,59.482,13.288
2019-07-02T00:29:16,42.805,6.029,4330,1995,194.493,59.479,13.288
2019-07-02T00:32:16,42.805,6.029,4330,1995,194.503,59.482,13.288
2019-07-02T00:35:16,42.805,6.029,4330,1995,194.520,59.487,13.288
2019-07-02T00:38:16,42.805,6.029,4330,1995,194.511,59.484,13.288
2019-07-02T00:41:16,42.805,6.029,4330,1995,194.505,59.482,13.288
2019-07-02T00:44:16,42.805,6.029,4330,1995,194.512,59.484,13.288
2019-07-02T00:47:16,42.805,6.029,4330,1995,194.490,59.478,13.288
2019-07-02T00:50:16,42.805,6.029,4330,1995,194.516,59.486,13.288
2019-07-02T00:53:16,42.805,6.029,4330,1995,194.517,59.485,13.287
2019-07-02T00:56:16,42.805,6.029,4330,1995,194.510,59.483,13.287
2019-07-02T00:59:16,42.805,6.029,4330,1995,194.490,59.477,13.288
2019-07-02T01:02:16,42.805,6.029,4330,1995,194.545,59.494,13.287
2019-07-02T01:05:16,42.805,6.029,4330,1995,194.515,59.484,13.287
2019-07-02T01:08:16,42.805,6.029,4330,1995,194.513,59.484,13.287
2019-07-02T01:11:16,42.805,6.029,4330,1995,194.497,59.479,13.287
2019-07-02T01:14:16,42.805,6.029,4330,1995,194.462,59.468,13.287
2019-07-02T01:17:16,42.805,6.029,4330,1995,194.498,59.480,13.288
2019-07-02T01:20:16,42.805,6.029,4330,1995,194.492,59.478,13.287
2019-07-02T01:23:16,42.805,6.029,4330,1995,194.517,59.485,13.287
2019-07-02T01:26:16,42.805,6.029,4330,1995,194.506,59.482,13.287
2019-07-02T01:29:16,42.805,6.029,4330,1995,194.508,59.483,13.287
2019-07-02T01:32:16,42.805,6.029,4330,1995,194.579,59.504,13.287
2019-07-02T01:35:16,42.805,6.029,4330,1995,194.581,59.505,13.287
2019-07-02T01:38:16,42.805,6.029,4330,1995,194.589,59.508,13.288
2019-07-02T01:41:16,42.805,6.029,4330,1995,194.534,59.491,13.288
2019-07-02T01:44:16,42.805,6.029,4330,1995,194.496,59.479,13.288
2019-07-02T01:47:16,42.805,6.029,4330,1995,194.464,59.469,13.288
2019-07-02T01:50:16,42.805,6.029,4330,1995,194.449,59.465,13.288
2019-07-02T01:53:16,42.805,6.029,4330,1995,194.482,59.475,13.288
2019-07-02T01:56:16,42.805,6.029,4330,1995,194.471,59.472,13.288
2019-07-02T01:59:16,42.805,6.029,4330,1995,194.492,59.479,13.288
2019-07-02T02:02:16,42.805,6.029,4330,1995,194.506,59.482,13.288
2019-07-02T02:05:16,42.805,6.029,4330,1995,194.544,59.494,13.288
2019-07-02T02:08:16,42.805,6.029,4330,1995,194.548,59.496,13.288
2019-07-02T02:11:16,42.805,6.029,4330,1995,194.530,59.490,13.288
2019-07-02T02:14:16,42.805,6.029,4330,1995,194.554,59.497,13.288
2019-07-02T02:20:16,42.805,6.029,4330,1995,194.500,59.479,13.287
2019-07-02T02:23:16,42.805,6.029,4330,1995,194.532,59.489,13.287
2019-07-02T02:26:16,42.805,6.029,4330,1995,194.529,59.489,13.287
2019-07-02T02:29:16,42.805,6.029,4330,1995,194.431,59.459,13.287
2019-07-02T02:32:16,42.805,6.029,4330,1995,194.549,59.495,13.287
2019-07-02T02:35:16,42.805,6.029,4330,1995,194.532,59.490,13.287
2019-07-02T02:38:16,42.805,6.029,4330,1995,194.524,59.488,13.288
2019-07-02T02:41:16,42.805,6.029,4330,1995,194.523,59.487,13.288
2019-07-02T02:44:16,42.805,6.029,4330,1995,194.502,59.481,13.288
2019-07-02T02:47:16,42.805,6.029,4330,1995,194.490,59.477,13.288
2019-07-02T02:50:16,42.805,6.029,4330,1995,194.476,59.473,13.288
2019-07-02T02:53:16,42.805,6.029,4330,1995,194.514,59.485,13.288
2019-07-02T02:56:16,42.805,6.029,4330,1995,194.516,59.485,13.288
2019-07-02T02:59:16,42.805,6.029,4330,1995,194.513,59.485,13.288
2019-07-02T03:02:16,42.805,6.029,4330,1995,194.504,59.482,13.288
2019-07-02T03:05:16,42.805,6.029,4330,1995,194.511,59.484,13.288
2019-07-02T03:08:16,42.805,6.029,4330,1995,194.488,59.477,13.288
2019-07-02T03:11:16,42.805,6.029,4330,1995,194.515,59.486,13.288
2019-07-02T03:14:16,42.805,6.029,4330,1995,194.485,59.476,13.288
2019-07-02T03:17:16,42.805,6.029,4330,1995,194.461,59.469,13.288
2019-07-02T03:20:16,42.805,6.029,4330,1995,194.480,59.475,13.288
2019-07-02T03:23:16,42.805,6.029,4330,1995,194.450,59.466,13.288
2019-07-02T03:26:16,42.805,6.029,4330,1995,194.436,59.462,13.288
2019-07-02T03:29:16,42.805,6.029,4330,1995,194.501,59.482,13.288
2019-07-02T03:32:16,42.805,6.029,4330,1995,194.408,59.453,13.289
2019-07-02T03:35:16,42.805,6.029,4330,1995,194.445,59.464,13.288
2019-07-02T03:38:16,42.805,6.029,4330,1995,194.477,59.474,13.288
2019-07-02T03:41:16,42.805,6.029,4330,1995,194.503,59.482,13.288
2019-07-02T03:44:16,42.805,6.029,4330,1995,194.476,59.474,13.288
2019-07-02T03:47:16,42.805,6.029,4330,1995,194.481,59.475,13.288
2019-07-02T03:50:16,42.805,6.029,4330,1995,194.468,59.471,13.288
2019-07-02T03:53:16,42.805,6.029,4330,1995,194.466,59.471,13.288
2019-07-02T03:56:16,42.805,6.029,4330,1995,194.450,59.466,13.288
2019-07-02T03:59:16,42.805,6.029,4330,1995,194.433,59.461,13.288
2019-07-02T04:02:16,42.805,6.029,4330,1995,194.457,59.468,13.288
2019-07-02T04:05:15,42.805,6.029,4330,1995,194.499,59.480,13.288
2019-07-02T04:08:15,42.805,6.029,4330,1995,194.392,59.448,13.288
2019-07-02T04:11:15,42.805,6.029,4330,1995,194.468,59.471,13.288
2019-07-02T04:14:15,42.805,6.029,4330,1995,194.496,59.479,13.288
2019-07-02T04:17:15,42.805,6.029,4330,1995,194.443,59.463,13.288
2019-07-02T04:20:15,42.805,6.029,4330,1995,194.473,59.472,13.287
2019-07-02T04:23:15,42.805,6.029,4330,1995,194.433,59.460,13.287
2019-07-02T04:26:15,42.805,6.029,4330,1995,194.443,59.463,13.287
2019-07-02T04:29:15,42.805,6.029,4330,1995,194.399,59.449,13.287
2019-07-02T04:32:15,42.805,6.029,4330,1995,194.374,59.442,13.287
2019-07-02T04:35:15,42.805,6.029,4330,1995,194.482,59.475,13.288
2019-07-02T04:38:15,42.805,6.029,4330,1995,194.450,59.465,13.287
2019-07-02T04:41:15,42.805,6.029,4330,1995,194.431,59.459,13.288
2019-07-02T04:44:15,42.805,6.029,4330,1995,194.418,59.455,13.288
2019-07-02T04:47:15,42.805,6.029,4330,1995,194.411,59.453,13.288
2019-07-02T04:50:15,42.805,6.029,4330,1995,194.415,59.454,13.288
2019-07-02T04:56:15,42.805,6.029,4330,1995,194.425,59.456,13.287
2019-07-02T04:59:15,42.805,6.029,4330,1995,194.457,59.467,13.288
2019-07-02T05:02:15,42.805,6.029,4330,1995,194.394,59.449,13.288
2019-07-02T05:05:15,42.805,6.029,4330,1995,194.454,59.467,13.288
2019-07-02T05:08:15,42.805,6.029,4330,1995,194.422,59.457,13.288
2019-07-02T05:11:15,42.805,6.029,4330,1995,194.383,59.445,13.288
2019-07-02T05:14:15,42.805,6.029,4330,1995,194.386,59.446,13.288
2019-07-02T05:17:15,42.805,6.029,4330,1995,194.401,59.450,13.288
2019-07-02T05:20:15,42.805,6.029,4330,1995,194.398,59.449,13.288
2019-07-02T05:23:15,42.805,6.029,4330,1995,194.413,59.454,13.288
2019-07-02T05:26:15,42.805,6.029,4330,1995,194.395,59.448,13.288
2019-07-02T05:29:15,42.805,6.029,4330,1995,194.353,59.435,13.288
2019-07-02T05:32:15,42.805,6.029,4330,1995,194.362,59.438,13.288
2019-07-02T05:35:15,42.805,6.029,4330,1995,194.378,59.443,13.288
2019-07-02T05:38:15,42.805,6.029,4330,1995,194.403,59.450,13.287
2019-07-02T05:41:15,42.805,6.029,4330,1995,194.422,59.456,13.287
2019-07-02T05:44:15,42.805,6.029,4330,1995,194.348,59.434,13.288
2019-07-02T05:47:15,42.805,6.029,4330,1995,194.385,59.445,13.288
2019-07-02T05:50:15,42.805,6.029,4330,1995,194.395,59.448,13.288
2019-07-02T05:53:15,42.805,6.029,4330,1995,194.393,59.448,13.288
2019-07-02T05:56:15,42.805,6.029,4330,1995,194.372,59.441,13.288
2019-07-02T05:59:15,42.805,6.029,4330,1995,194.450,59.465,13.288
2019-07-02T06:02:15,42.805,6.029,4330,1995,194.376,59.443,13.288
2019-07-02T06:05:15,42.805,6.029,4330,1995,194.461,59.469,13.288
2019-07-02T06:08:15,42.805,6.029,4330,1995,194.446,59.464,13.288
2019-07-02T06:11:15,42.805,6.029,4330,1995,194.439,59.462,13.288
2019-07-02T06:14:15,42.805,6.029,4330,1995,194.382,59.445,13.288
2019-07-02T06:17:15,42.805,6.029,4330,1995,194.345,59.433,13.288
2019-07-02T06:20:15,42.805,6.029,4330,1995,194.426,59.458,13.288
2019-07-02T06:23:15,42.805,6.029,4330,1995,194.432,59.460,13.288
2019-07-02T06:26:15,42.805,6.029,4330,1995,194.431,59.460,13.288
2019-07-02T06:29:15,42.805,6.029,4330,1995,194.405,59.452,13.288
2019-07-02T06:32:15,42.805,6.029,4330,1995,194.404,59.452,13.288
2019-07-02T06:35:15,42.805,6.029,4330,1995,194.396,59.450,13.288
2019-07-02T06:38:15,42.805,6.029,4330,1995,194.428,59.459,13.288
2019-07-02T06:41:15,42.805,6.029,4330,1995,194.399,59.450,13.288
2019-07-02T06:44:15,42.805,6.029,4330,1995,194.431,59.461,13.289
2019-07-02T06:47:15,42.805,6.029,4330,1995,194.389,59.448,13.288
2019-07-02T06:50:15,42.805,6.029,4330,1995,194.391,59.448,13.289
2019-07-02T06:53:15,42.805,6.029,4330,1995,194.393,59.449,13.289
2019-07-02T06:56:15,42.805,6.029,4330,1995,194.388,59.448,13.289
2019-07-02T06:59:15,42.805,6.029,4330,1995,194.343,59.434,13.289
2019-07-02T07:02:15,42.805,6.029,4330,1995,194.374,59.443,13.289
2019-07-02T07:05:15,42.805,6.029,4330,1995,194.350,59.436,13.289
2019-07-02T07:08:15,42.805,6.029,4330,1995,194.364,59.440,13.289
2019-07-02T07:11:15,42.805,6.029,4330,1995,194.342,59.433,13.288
2019-07-02T07:14:15,42.805,6.029,4330,1995,194.404,59.452,13.288
2019-07-02T07:17:15,42.805,6.029,4330,1995,194.382,59.445,13.288
2019-07-02T07:20:15,42.805,6.029,4330,1995,194.385,59.446,13.288
2019-07-02T07:23:15,42.805,6.029,4330,1995,194.351,59.435,13.288
2019-07-02T07:26:15,42.805,6.029,4330,1995,194.325,59.427,13.288
2019-07-02T07:32:15,42.805,6.029,4330,1995,194.350,59.434,13.287
2019-07-02T07:35:15,42.805,6.029,4330,1995,194.386,59.446,13.288
2019-07-02T07:38:15,42.805,6.029,4330,1995,194.348,59.435,13.288
2019-07-02T07:41:15,42.805,6.029,4330,1995,194.350,59.435,13.288
2019-07-02T07:44:15,42.805,6.029,4330,1995,194.364,59.440,13.288
2019-07-02T07:47:15,42.805,6.029,4330,1995,194.425,59.458,13.288
2019-07-02T07:50:15,42.805,6.029,4330,1995,194.351,59.436,13.289
2019-07-02T07:53:15,42.805,6.029,4330,1995,194.405,59.452,13.288
2019-07-02T07:56:15,42.805,6.029,4330,1995,194.371,59.442,13.289
2019-07-02T07:59:15,42.805,6.029,4330,1995,194.399,59.451,13.289
2019-07-02T08:02:15,42.805,6.029,4330,1995,194.409,59.454,13.289
2019-07-02T08:05:15,42.805,6.029,4330,1995,194.302,59.421,13.289
2019-07-02T08:08:15,42.805,6.029,4330,1995,194.396,59.450,13.289
2019-07-02T08:11:15,42.805,6.029,4330,1995,194.378,59.444,13.289
2019-07-02T08:14:15,42.805,6.029,4330,1995,194.275,59.413,13.289
2019-07-02T08:17:15,42.805,6.029,4330,1995,194.351,59.436,13.289
2019-07-02T08:20:15,42.805,6.029,4330,1995,194.328,59.428,13.288
2019-07-02T08:23:15,42.805,6.029,4330,1995,194.350,59.435,13.288
2019-07-02T08:26:15,42.805,6.029,4330,1995,194.358,59.438,13.288
2019-07-02T08:29:15,42.805,6.029,4330,1995,194.337,59.431,13.288
2019-07-02T08:32:15,42.805,6.029,4330,1995,194.385,59.446,13.288
2019-07-02T08:35:15,42.805,6.029,4330,1995,194.394,59.448,13.288
2019-07-02T08:38:15,42.805,6.029,4330,1995,194.383,59.445,13.288
2019-07-02T08:41:15,42.805,6.029,4330,1995,194.391,59.447,13.288
2019-07-02T08:44:15,42.805,6.029,4330,1995,194.372,59.441,13.288
2019-07-02T08:47:15,42.805,6.029,4330,1995,194.401,59.450,13.288
2019-07-02T08:50:15,42.805,6.029,4330,1995,194.396,59.448,13.288
2019-07-02T08:53:15,42.805,6.029,4330,1995,194.342,59.432,13.288
2019-07-02T08:56:15,42.805,6.029,4330,1995,194.396,59.448,13.287
2019-07-02T08:59:15,42.805,6.029,4330,1995,194.431,59.459,13.288
2019-07-02T09:02:15,42.805,6.029,4330,1995,194.414,59.454,13.288
2019-07-02T09:05:15,42.805,6.029,4330,1995,194.431,59.459,13.288
2019-07-02T09:08:15,42.805,6.029,4330,1995,194.455,59.467,13.288
2019-07-02T09:11:15,42.805,6.029,4330,1995,194.429,59.459,13.288
2019-07-02T09:14:15,42.805,6.029,4330,1995,194.389,59.447,13.288
2019-07-02T09:17:15,42.805,6.029,4330,1995,194.448,59.465,13.288
2019-07-02T09:20:15,42.805,6.029,4330,1995,194.379,59.444,13.288
2019-07-02T09:23:15,42.805,6.029,4330,1995,194.416,59.455,13.288
2019-07-02T09:26:15,42.805,6.029,4330,1995,194.417,59.455,13.288
2019-07-02T09:29:15,42.805,6.029,4330,1995,194.461,59.469,13.288
2019-07-02T09:32:15,42.805,6.029,4330,1995,194.403,59.451,13.288
2019-07-02T09:35:15,42.805,6.029,4330,1995,194.473,59.472,13.288
2019-07-02T09:38:15,42.805,6.029,4330,1995,194.472,59.472,13.288
2019-07-02T09:41:15,42.805,6.029,4330,1995,194.514,59.485,13.288
2019-07-02T09:44:15,42.805,6.029,4330,1995,194.488,59.477,13.288
2019-07-02T09:47:15,42.805,6.029,4330,1995,194.471,59.472,13.288
2019-07-02T09:50:15,42.805,6.029,4330,1995,194.491,59.478,13.288
2019-07-02T09:53:15,42.805,6.029,4330,1995,194.447,59.465,13.288
2019-07-02T09:56:15,42.805,6.029,4330,1995,194.445,59.465,13.288
2019-07-02T09:59:15,42.805,6.029,4330,1995,194.437,59.462,13.288
2019-07-02T10:05:15,42.805,6.029,4330,1995,194.404,59.451,13.288
2019-07-02T10:08:15,42.805,6.029,4330,1995,194.449,59.464,13.287
2019-07-02T10:11:15,42.805,6.029,4330,1995,194.386,59.445,13.287
2019-07-02T10:14:15,42.805,6.029,4330,1995,194.412,59.453,13.288
2019-07-02T10:17:15,42.805,6.029,4330,1995,194.398,59.449,13.288
2019-07-02T10:20:15,42.805,6.029,4330,1995,194.448,59.464,13.288
2019-07-02T10:23:15,42.805,6.029,4330,1995,194.441,59.462,13.288
2019-07-02T10:26:15,42.805,6.029,4330,1995,194.448,59.464,13.288
2019-07-02T10:29:15,42.805,6.029,4330,1995,194.422,59.456,13.288
2019-07-02T10:32:15,42.805,6.029,4330,1995,194.452,59.466,13.288
2019-07-02T10:35:15,42.805,6.029,4330,1995,194.443,59.463,13.288
2019-07-02T10:38:15,42.805,6.029,4330,1995,194.409,59.453,13.288
2019-07-02T10:41:15,42.805,6.029,4330,1995,194.410,59.453,13.288
2019-07-02T10:44:15,42.805,6.029,4330,1995,194.468,59.471,13.288
2019-07-02T10:47:15,42.805,6.029,4330,1995,194.457,59.468,13.288
2019-07-02T10:50:15,42.805,6.029,4330,1995,194.488,59.477,13.288
2019-07-02T10:53:15,42.805,6.029,4330,1995,194.425,59.458,13.288
2019-07-02T10:56:15,42.805,6.029,4330,1995,194.456,59.467,13.288
2019-07-02T10:59:15,42.805,6.029,4330,1995,194.486,59.477,13.288
2019-07-02T11:02:15,42.805,6.029,4330,1995,194.481,59.475,13.288
2019-07-02T11:05:15,42.805,6.029,4330,1995,194.470,59.472,13.288
2019-07-02T11:08:15,42.805,6.029,4330,1995,194.517,59.487,13.288
2019-07-02T11:11:15,42.805,6.029,4330,1995,194.424,59.458,13.288
2019-07-02T11:14:15,42.805,6.029,4330,1995,194.412,59.455,13.288
2019-07-02T11:17:15,42.805,6.029,4330,1995,194.423,59.458,13.288
2019-07-02T11:20:15,42.805,6.029,4330,1995,194.451,59.466,13.288
2019-07-02T11:23:15,42.805,6.029,4330,1995,194.378,59.444,13.288
2019-07-02T11:26:15,42.805,6.029,4330,1995,194.414,59.455,13.288
2019-07-02T11:29:15,42.805,6.029,4330,1995,194.393,59.449,13.288
2019-07-02T11:32:15,42.805,6.029,4330,1995,194.453,59.467,13.288
2019-07-02T11:35:15,42.805,6.029,4330,1995,194.464,59.470,13.288
2019-07-02T11:38:15,42.805,6.029,4330,1995,194.438,59.462,13.288
2019-07-02T11:41:15,42.805,6.029,4330,1995,194.408,59.453,13.288
2019-07-02T11:44:15,42.805,6.029,4330,1995,194.401,59.451,13.288
2019-07-02T11:47:15,42.805,6.029,4330,1995,194.454,59.467,13.288
2019-07-02T11:50:15,42.805,6.029,4330,1995,194.450,59.466,13.288
2019-07-02T11:53:15,42.805,6.029,4330,1995,194.515,59.485,13.288
2019-07-02T11:56:15,42.805,6.029,4330,1995,194.511,59.484,13.288
2019-07-02T11:59:15,42.805,6.029,4330,1995,194.476,59.473,13.288
2019-07-02T12:02:15,42.805,6.029,4330,1995,194.504,59.482,13.288
2019-07-02T12:05:15,42.805,6.029,4330,1995,194.471,59.471,13.287
2019-07-02T12:08:15,42.805,6.029,4330,1995,194.512,59.484,13.287
2019-07-02T12:11:15,42.805,6.029,4330,1995,194.471,59.471,13.287
2019-07-02T12:14:15,42.805,6.029,4330,1995,194.506,59.482,13.287
2019-07-02T12:17:15,42.805,6.029,4330,1995,194.472,59.472,13.288
2019-07-02T12:20:15,42.805,6.029,4330,1995,194.411,59.453,13.288
2019-07-02T12:23:15,42.805,6.029,4330,1995,194.442,59.462,13.288
2019-07-02T12:26:15,42.805,6.029,4330,1995,194.429,59.459,13.288
2019-07-02T12:29:15,42.805,6.029,4330,1995,194.460,59.468,13.287
2019-07-02T12:32:15,42.805,6.029,4330,1995,194.439,59.461,13.288
2019-07-02T12:35:15,42.805,6.029,4330,1995,194.422,59.456,13.288
2019-07-02T12:41:15,42.805,6.029,4330,1995,194.414,59.453,13.287
2019-07-02T12:44:15,42.805,6.029,4330,1995,194.492,59.478,13.288
2019-07-02T12:47:15,42.805,6.029,4330,1995,194.429,59.459,13.288
2019-07-02T12:50:15,42.805,6.029,4330,1995,194.451,59.466,13.288
2019-07-02T12:53:15,42.805,6.029,4330,1995,194.511,59.484,13.288
2019-07-02T12:56:15,42.805,6.029,4330,1995,194.414,59.454,13.288
2019-07-02T12:59:15,42.805,6.029,4330,1995,194.464,59.469,13.288
2019-07-02T13:02:15,42.805,6.029,4330,1995,194.450,59.465,13.288
2019-07-02T13:05:15,42.805,6.029,4330,1995,194.470,59.471,13.288
2019-07-02T13:08:15,42.805,6.029,4330,1995,194.500,59.480,13.288
2019-07-02T13:11:15,42.805,6.029,4330,1995,194.426,59.457,13.287
2019-07-02T13:14:15,42.805,6.029,4330,1995,194.461,59.468,13.288
2019-07-02T13:17:15,42.805,6.029,4330,1995,194.477,59.473,13.287
2019-07-02T13:20:15,42.805,6.029,4330,1995,194.438,59.461,13.287
2019-07-02T13:23:15,42.805,6.029,4330,1995,194.455,59.466,13.287
2019-07-02T13:26:15,42.805,6.029,4330,1995,194.463,59.468,13.287
2019-07-02T13:29:15,42.805,6.029,4330,1995,194.429,59.458,13.287
2019-07-02T13:32:15,42.805,6.029,4330,1995,194.495,59.479,13.288
2019-07-02T13:35:15,42.805,6.029,4330,1995,194.444,59.463,13.287
2019-07-02T13:38:15,42.805,6.029,4330,1995,194.469,59.470,13.287
2019-07-02T13:41:15,42.805,6.029,4330,1995,194.474,59.472,13.288
2019-07-02T13:44:15,42.805,6.029,4330,1995,194.485,59.476,13.288
2019-07-02T13:47:15,42.805,6.029,4330,1995,194.526,59.488,13.288
2019-07-02T13:50:15,42.805,6.029,4330,1995,194.452,59.466,13.288
2019-07-02T13:53:15,42.805,6.029,4330,1995,194.476,59.474,13.288
2019-07-02T13:56:15,42.805,6.029,4330,1995,194.476,59.474,13.288
2019-07-02T13:59:15,42.805,6.029,4330,1995,194.502,59.481,13.288
2019-07-02T14:02:15,42.805,6.029,4330,1995,194.457,59.468,13.288
2019-07-02T14:05:15,42.805,6.029,4330,1995,194.491,59.478,13.288
2019-07-02T14:08:15,42.805,6.029,4330,1995,194.444,59.464,13.288
2019-07-02T14:11:15,42.805,6.029,4330,1995,194.462,59.469,13.288
2019-07-02T14:14:15,42.805,6.029,4330,1995,194.478,59.474,13.288
2019-07-02T14:17:15,42.805,6.029,4330,1995,194.450,59.466,13.288
2019-07-02T14:20:15,42.805,6.029,4330,1995,194.439,59.462,13.288
2019-07-02T14:23:15,42.805,6.029,4330,1995,194.469,59.472,13.288
2019-07-02T14:26:15,42.805,6.029,4330,1995,194.472,59.473,13.288
2019-07-02T14:29:15,42.805,6.029,4330,1995,194.478,59.475,13.288
2019-07-02T14:32:15,42.805,6.029,4330,1995,194.442,59.464,13.288
2019-07-02T14:35:15,42.805,6.029,4330,1995,194.435,59.461,13.288
2019-07-02T14:38:15,42.805,6.029,4330,1995,194.434,59.461,13.288
2019-07-02T14:41:15,42.805,6.029,4330,1995,194.463,59.470,13.288
2019-07-02T14:44:15,42.805,6.029,4330,1995,194.412,59.454,13.288
2019-07-02T14:47:15,42.805,6.029,4330,1995,194.434,59.461,13.288
2019-07-02T14:50:15,42.805,6.029,4330,1995,194.466,59.471,13.289
2019-07-02T14:53:15,42.805,6.029,4330,1995,194.415,59.455,13.288
2019-07-02T14:56:15,42.805,6.029,4330,1995,194.433,59.461,13.288
2019-07-02T14:59:15,42.805,6.029,4330,1995,194.463,59.470,13.288
2019-07-02T15:02:15,42.805,6.029,4330,1995,194.436,59.461,13.288
2019-07-02T15:05:15,42.805,6.029,4330,1995,194.499,59.480,13.288
2019-07-02T15:08:15,42.805,6.029,4330,1995,194.494,59.479,13.288
2019-07-02T15:11:15,42.805,6.029,4330,1995,194.515,59.485,13.288
2019-07-02T15:17:15,42.805,6.029,4330,1995,194.495,59.478,13.287
2019-07-02T15:20:15,42.805,6.029,4330,1995,194.518,59.486,13.288
2019-07-02T15:23:15,42.805,6.029,4330,1995,194.508,59.483,13.288
2019-07-02T15:26:15,42.805,6.029,4330,1995,194.518,59.487,13.288
2019-07-02T15:29:15,42.805,6.029,4330,1995,194.443,59.464,13.288
2019-07-02T15:32:15,42.805,6.029,4330,1995,194.500,59.481,13.288
2019-07-02T15:35:15,42.805,6.029,4330,1995,194.534,59.491,13.288
2019-07-02T15:38:15,42.805,6.029,4330,1995,194.494,59.479,13.288
2019-07-02T15:41:15,42.805,6.029,4330,1995,194.521,59.488,13.288
2019-07-02T15:44:15,42.805,6.029,4330,1995,194.479,59.475,13.288
2019-07-02T15:47:15,42.805,6.029,4330,1995,194.485,59.477,13.288
2019-07-02T15:50:15,42.805,6.029,4330,1995,194.546,59.495,13.288
2019-07-02T15:53:15,42.805,6.029,4330,1995,194.567,59.502,13.288
2019-07-02T15:56:15,42.805,6.029,4330,1995,194.509,59.484,13.288
2019-07-02T15:59:15,42.805,6.029,4330,1995,194.553,59.497,13.288
2019-07-02T16:02:15,42.805,6.029,4330,1995,194.529,59.490,13.288
2019-07-02T16:05:15,42.805,6.029,4330,1995,194.560,59.499,13.288
2019-07-02T16:08:15,42.805,6.029,4330,1995,194.574,59.503,13.288
2019-07-02T16:11:15,42.805,6.029,4330,1995,194.534,59.491,13.288
2019-07-02T16:14:15,42.805,6.029,4330,1995,194.488,59.477,13.288
2019-07-02T16:17:15,42.805,6.029,4330,1995,194.499,59.481,13.288
2019-07-02T16:20:15,42.805,6.029,4330,1995,194.510,59.484,13.288
2019-07-02T16:23:15,42.805,6.029,4330,1995,194.517,59.485,13.288
2019-07-02T16:26:15,42.805,6.029,4330,1995,194.539,59.492,13.288
2019-07-02T16:29:15,42.805,6.029,4330,1995,194.554,59.497,13.288
2019-07-02T16:32:15,42.805,6.029,4330,1995,194.523,59.487,13.288
2019-07-02T16:35:15,42.805,6.029,4330,1995,194.537,59.491,13.287
2019-07-02T16:38:15,42.805,6.029,4330,1995,194.467,59.470,13.287
2019-07-02T16:41:15,42.805,6.029,4330,1995,194.522,59.487,13.287
2019-07-02T16:44:15,42.805,6.029,4330,1995,194.529,59.489,13.287
2019-07-02T16:47:15,42.805,6.029,4330,1995,194.558,59.498,13.287
2019-07-02T16:50:15,42.805,6.029,4330,1995,194.532,59.490,13.288
2019-07-02T16:53:15,42.805,6.029,4330,1995,194.580,59.504,13.287
2019-07-02T16:56:15,42.805,6.029,4330,1995,194.549,59.495,13.288
2019-07-02T16:59:15,42.805,6.029,4330,1995,194.521,59.487,13.288
2019-07-02T17:02:15,42.805,6.029,4330,1995,194.545,59.494,13.287
2019-07-02T17:05:15,42.805,6.029,4330,1995,194.548,59.495,13.288
2019-07-02T17:08:15,42.805,6.029,4330,1995,194.569,59.501,13.288
2019-07-02T17:11:15,42.805,6.029,4330,1995,194.563,59.500,13.288
2019-07-02T17:14:15,42.805,6.029,4330,1995,194.540,59.493,13.288
2019-07-02T17:17:15,42.805,6.029,4330,1995,194.544,59.494,13.288
2019-07-02T17:20:15,42.805,6.029,4330,1995,194.548,59.495,13.288
2019-07-02T17:23:15,42.805,6.029,4330,1995,194.556,59.498,13.288
2019-07-02T17:26:15,42.805,6.029,4330,1995,194.524,59.488,13.288
2019-07-02T17:29:15,42.805,6.029,4330,1995,194.513,59.485,13.288
2019-07-02T17:32:15,42.805,6.029,4330,1995,194.530,59.490,13.288
2019-07-02T17:35:15,42.805,6.029,4330,1995,194.571,59.502,13.288
2019-07-02T17:38:15,42.805,6.029,4330,1995,194.592,59.509,13.288
2019-07-02T17:41:15,42.805,6.029,4330,1995,194.571,59.502,13.288
2019-07-02T17:44:15,42.805,6.029,4330,1995,194.552,59.497,13.288
2019-07-02T17:50:15,42.805,6.029,4330,1995,194.549,59.494,13.287
2019-07-02T17:53:15,42.805,6.029,4330,1995,194.509,59.482,13.287
2019-07-02T17:56:15,42.805,6.029,4330,1995,194.538,59.491,13.287
2019-07-02T17:59:15,42.805,6.029,4330,1995,194.513,59.484,13.288
2019-07-02T18:02:15,42.805,6.029,4330,1995,194.534,59.490,13.287
2019-07-02T18:05:15,42.805,6.029,4330,1995,194.567,59.501,13.287
2019-07-02T18:08:15,42.805,6.029,4330,1995,194.539,59.492,13.288
2019-07-02T18:11:15,42.805,6.029,4330,1995,194.497,59.479,13.287
2019-07-02T18:14:15,42.805,6.029,4330,1995,194.522,59.487,13.288
2019-07-02T18:17:15,42.805,6.029,4330,1995,194.530,59.489,13.288
2019-07-02T18:20:15,42.805,6.029,4330,1995,194.540,59.493,13.288
2019-07-02T18:23:15,42.805,6.029,4330,1995,194.541,59.493,13.288
2019-07-02T18:26:15,42.805,6.029,4330,1995,194.581,59.505,13.288
2019-07-02T18:29:15,42.805,6.029,4330,1995,194.508,59.483,13.288